YE0EEE-10 Weather Reports


time (UTC)temp
F
wind
direction
speed
knots
gust
knots
rain 1hr
in
rain 24hr
in
rain mn
in
humidity
%
barometer
mb
20260503050218 97 0.9 3.5 0.00 2.07 0.00 50 1010.8
20260503050019 97 0.0 1.7 0.00 2.07 0.00 50 1010.9
20260503045818 96 135 0.0 3.5 0.00 2.07 0.00 50 1010.9
20260503045619 96 135 0.0 3.5 0.00 2.07 0.00 50 1011.0
20260503045418 96 135 0.0 2.6 0.00 2.07 0.00 50 1011.0
20260503045218 96 0.0 0.0 0.00 2.07 0.00 50 1011.1
20260503045018 96 0.0 0.0 0.00 2.07 0.00 50 1011.1
20260503044819 97 0.0 0.0 0.00 2.07 0.00 49 1011.1
20260503044618 97 1.7 7.0 0.00 2.07 0.00 50 1011.1
20260503044418 97 293 1.7 7.0 0.00 2.07 0.00 49 1011.2
20260503044218 97 0.0 0.0 0.00 2.07 0.00 46 1011.3
20260503044019 97 0.0 0.0 0.00 2.07 0.00 46 1011.3
20260503043818 97 0.0 0.0 0.00 2.07 0.00 46 1011.3
20260503043618 96 0.0 0.9 0.00 2.07 0.00 47 1011.4
20260503043418 96 0.0 0.9 0.00 2.07 0.00 49 1011.3
20260503043218 96 0.0 0.0 0.00 2.07 0.00 48 1011.4
20260503043018 96 0.0 0.0 0.00 2.07 0.00 47 1011.5
20260503042818 96 0.0 0.0 0.00 2.07 0.00 46 1011.6
20260503042618 96 0.0 0.0 0.00 2.07 0.00 47 1011.6
20260503042418 96 0.0 0.0 0.00 2.07 0.00 47 1011.7
20260503042218 96 0.0 0.0 0.00 2.07 0.00 47 1011.7
20260503042018 96 0.0 0.0 0.00 2.07 0.00 46 1011.7
20260503041818 97 0.0 0.0 0.00 2.07 0.00 46 1011.7
20260503041618 97 135 1.7 4.3 0.00 2.07 0.00 46 1011.8
20260503041418 97 135 1.7 2.6 0.00 2.07 0.00 46 1011.8
20260503041219 97 135 0.0 2.6 0.00 2.07 0.00 45 1011.9
20260503041018 97 0.0 0.0 0.00 2.07 0.00 45 1011.9
20260503040818 97 0.0 0.0 0.00 2.07 0.00 46 1011.9
20260503040618 96 135 0.0 2.6 0.00 2.07 0.00 48 1012.0
20260503040418 96 0.0 0.0 0.00 2.07 0.00 49 1012.0
20260503040218 95 0.0 0.0 0.00 2.07 0.00 49 1012.0
20260503040019 95 0.0 0.0 0.00 2.07 0.00 49 1012.1
20260503035818 95 160 4.3 7.0 0.00 2.07 0.00 48 1012.1
20260503035618 95 180 3.5 7.8 0.00 2.07 0.00 48 1012.1
20260503035418 96 135 1.7 7.8 0.00 2.07 0.00 47 1012.1
20260503035218 96 0.0 0.0 0.00 2.07 0.00 48 1012.2
20260503035018 96 0.0 0.0 0.00 2.07 0.00 49 1012.1
20260503034818 96 0.0 0.9 0.00 2.07 0.00 50 1012.2
20260503034618 95 0.0 0.0 0.00 2.07 0.00 50 1012.2
20260503034418 95 0.0 0.0 0.00 2.07 0.00 50 1012.3
20260503034218 95 0.0 3.5 0.00 2.07 0.00 49 1012.3
20260503034019 95 0.0 3.5 0.00 2.07 0.00 49 1012.4
20260503033818 95 0.0 0.9 0.00 2.07 0.00 50 1012.4
20260503033618 95 0.0 0.9 0.00 2.07 0.00 50 1012.4
20260503033418 95 0.0 0.9 0.00 2.07 0.00 50 1012.4
20260503033219 95 0.0 0.0 0.00 2.07 0.00 50 1012.4
20260503033018 95 0.0 0.0 0.00 2.07 0.00 51 1012.4
20260503032818 95 0.0 0.0 0.00 2.07 0.00 51 1012.4
20260503032618 94 0.0 0.0 0.00 2.07 0.00 52 1012.4
20260503032419 94 177 1.7 4.3 0.00 2.07 0.00 52 1012.4
20260503032218 94 0.0 0.0 0.00 2.07 0.00 52 1012.4
20260503032019 94 0.0 0.0 0.00 2.07 0.00 52 1012.4
20260503031818 94 0.9 3.5 0.00 2.07 0.00 51 1012.5
20260503031618 94 135 1.7 5.2 0.00 2.07 0.00 51 1012.5
20260503031418 94 0.0 0.0 0.00 2.07 0.00 51 1012.5
20260503031219 94 0.0 0.0 0.00 2.07 0.00 51 1012.5
20260503031018 94 0.0 0.0 0.00 2.07 0.00 52 1012.5
20260503030818 94 0.0 0.0 0.00 2.07 0.00 52 1012.4
20260503030618 94 0.0 0.0 0.00 2.07 0.00 52 1012.4
20260503030419 94 0.0 0.0 0.00 2.07 0.00 52 1012.5
20260503030218 94 0.0 0.0 0.00 2.07 0.00 52 1012.5
20260503030019 94 0.0 0.0 0.00 2.07 0.00 53 1012.5
20260503025818 94 0.0 0.0 0.00 2.07 0.00 52 1012.5
20260503025618 94 0.0 0.0 0.00 2.07 0.00 52 1012.5
20260503025418 94 0.0 0.0 0.00 2.07 0.00 52 1012.5
20260503025218 94 0.0 0.0 0.00 2.07 0.00 52 1012.5
20260503025018 94 180 0.9 7.0 0.00 2.07 0.00 52 1012.5
20260503024819 94 286 1.7 7.0 0.00 2.07 0.00 52 1012.4
20260503024618 94 135 0.9 7.0 0.00 2.07 0.00 53 1012.3
20260503024418 94 135 0.9 7.0 0.00 2.07 0.00 53 1012.3
20260503024218 94 0.0 0.0 0.00 2.07 0.00 53 1012.3
20260503024019 94 0.0 0.0 0.00 2.07 0.00 53 1012.3
20260503023818 93 0.0 0.0 0.00 2.07 0.00 54 1012.3
20260503023619 93 0.0 2.6 0.00 2.07 0.00 53 1012.3
20260503023418 93 135 0.9 3.5 0.00 2.07 0.00 53 1012.4
20260503023218 93 0.0 0.0 0.00 2.07 0.00 53 1012.4
20260503023018 93 0.0 0.0 0.00 2.07 0.00 54 1012.4
20260503022818 92 0.0 0.0 0.00 2.07 0.00 54 1012.4
20260503022618 93 0.0 0.0 0.00 2.07 0.00 55 1012.4
20260503022419 93 0.0 0.0 0.00 2.07 0.00 57 1012.5
20260503022218 93 0.0 0.0 0.00 2.07 0.00 58 1012.4
20260503022018 92 0.0 0.0 0.00 2.07 0.00 57 1012.3
20260503021818 92 0.0 0.0 0.00 2.07 0.00 58 1012.4
20260503021618 92 0.0 0.0 0.00 2.07 0.00 58 1012.3
20260503021418 92 0.0 0.9 0.00 2.07 0.00 57 1012.3
20260503021219 91 0.0 0.0 0.00 2.07 0.00 59 1012.3
20260503021018 91 0.0 0.0 0.00 2.07 0.00 60 1012.3
20260503020819 91 0.0 0.0 0.00 2.07 0.00 61 1012.3
20260503020618 91 0.0 0.0 0.00 2.07 0.00 62 1012.2
20260503020418 90 0.0 0.0 0.00 2.07 0.00 62 1012.2
20260503020218 90 0.0 0.0 0.00 2.07 0.00 62 1012.2
20260503020018 91 0.0 0.0 0.00 2.07 0.00 61 1012.1
20260503015818 91 0.0 0.9 0.00 2.07 0.00 63 1012.0
20260503015619 91 15 0.9 3.5 0.00 2.07 0.00 64 1012.0
20260503015418 91 0.0 0.0 0.00 2.07 0.00 65 1012.0
20260503015219 91 0.0 0.0 0.00 2.07 0.00 67 1012.0
20260503015018 91 0.0 0.0 0.00 2.07 0.00 68 1011.9
20260503014818 91 0.0 0.0 0.00 2.07 0.00 68 1012.0
20260503014618 90 0.0 0.0 0.00 2.07 0.00 73 1012.0
20260503014419 90 0.0 0.0 0.00 2.07 0.00 76 1012.0
20260503014218 90 0.0 0.0 0.00 2.07 0.00 78 1011.9
20260503014018 89 0.0 0.0 0.00 2.07 0.00 77 1012.0
20260503013818 89 0.0 0.0 0.00 2.07 0.00 77 1011.9
20260503013619 89 0.0 0.0 0.00 2.07 0.00 79 1011.9
20260503013418 89 0.0 0.0 0.00 2.07 0.00 81 1011.9
20260503013219 89 0.0 0.0 0.00 2.07 0.00 82 1011.9
20260503013018 88 0.0 0.0 0.00 2.07 0.00 84 1012.0
20260503012818 88 0.0 0.0 0.00 2.07 0.00 87 1012.0
20260503012618 88 0.0 0.0 0.00 2.07 0.00 90 1012.1
20260503012419 88 0.0 0.0 0.00 2.07 0.00 91 1012.0
20260503012218 88 0.0 0.0 0.00 2.07 0.00 92 1012.1
20260503012018 88 0.0 0.0 0.00 2.07 0.00 93 1012.1
20260503011818 88 0.0 0.0 0.00 2.07 0.00 94 1012.2
20260503011618 87 0.0 0.0 0.00 2.07 0.00 94 1012.2
20260503011418 87 0.0 0.0 0.00 2.07 0.00 95 1012.3
20260503011219 87 0.0 0.0 0.00 2.07 0.00 96 1012.3
20260503011018 87 0.0 0.0 0.00 2.07 0.00 96 1012.3
20260503010818 86 0.0 0.0 0.00 2.07 0.00 97 1012.2
20260503010618 86 0.0 0.0 0.00 2.07 0.00 97 1012.3
20260503010424 86 0.0 0.0 0.00 2.07 0.00 98 1012.3
20260503010218 86 0.0 0.0 0.00 2.07 0.00 98 1012.2
20260503010019 85 0.0 0.0 0.00 2.07 0.00 98 1012.2
20260503005819 85 0.0 0.0 0.00 2.07 0.00 98 1012.1
20260503005619 85 0.0 0.0 0.00 2.07 0.00 98 1012.1
20260503005420 85 0.0 0.0 0.00 2.07 0.00 98 1012.2
20260503005219 84 0.0 0.0 0.00 2.07 0.00 98 1012.2
20260503005019 84 0.0 0.0 0.00 2.07 0.00 98 1012.0
20260503004819 84 0.0 0.0 0.00 2.07 0.00 98 1012.0
20260503004619 83 0.0 0.0 0.00 2.07 0.00 98 1012.0
20260503004419 83 0.0 0.0 0.00 2.07 0.00 98 1012.0
20260503004220 83 0.0 0.0 0.00 2.07 0.00 98 1011.9
20260503004019 83 0.0 0.0 0.00 2.07 0.00 98 1011.9
20260503003819 83 0.0 0.0 0.00 2.07 0.00 98 1011.9
20260503003619 83 0.0 0.0 0.00 2.07 0.00 98 1011.9
20260503003419 82 0.0 0.0 0.00 2.07 0.00 98 1011.9
20260503003219 82 0.0 0.0 0.00 2.07 0.00 98 1011.9
20260503003020 82 0.0 0.0 0.00 2.07 0.00 98 1011.9
20260503002819 82 0.0 0.0 0.00 2.07 0.00 98 1011.9
20260503002619 82 0.0 0.0 0.00 2.07 0.00 98 1011.9
20260503002419 82 0.0 0.0 0.00 2.07 0.00 98 1011.9
20260503002219 82 0.0 0.0 0.00 2.07 0.00 98 1011.8
20260503002019 81 0.0 0.0 0.00 2.07 0.00 98 1011.8
20260503001820 81 0.0 0.0 0.00 2.07 0.00 99 1011.8
20260503001619 81 0.0 0.0 0.00 2.07 0.00 99 1011.8
20260503001419 81 0.0 0.0 0.00 2.07 0.00 99 1011.6
20260503001219 81 0.0 0.0 0.00 2.07 0.00 99 1011.6
20260503001019 81 0.0 0.0 0.00 2.07 0.00 99 1011.6
20260503000819 81 0.0 0.0 0.00 2.07 0.00 99 1011.6
20260503000619 81 0.0 0.0 0.00 2.07 0.00 99 1011.4
20260503000419 81 0.0 0.0 0.00 2.07 0.00 99 1011.5
20260503000219 81 0.0 0.0 0.00 2.07 0.00 99 1011.4
20260503000019 80 0.0 0.0 0.00 2.07 0.00 99 1011.4
20260502235819 80 0.0 0.0 0.00 2.07 0.00 99 1011.4
20260502235619 80 0.0 0.0 0.00 2.07 0.00 99 1011.4
20260502235420 80 0.0 0.0 0.00 2.07 0.00 99 1011.3
20260502235219 80 0.0 0.0 0.00 2.07 0.00 99 1011.2
20260502235019 80 0.0 0.0 0.00 2.07 0.00 99 1011.2
20260502234819 80 0.0 0.0 0.00 2.07 0.00 99 1011.1
20260502234619 79 0.0 0.0 0.00 2.07 0.00 99 1011.0
20260502234419 79 0.0 0.0 0.00 2.07 0.00 99 1011.0
20260502234219 79 0.0 0.0 0.00 2.07 0.00 99 1011.0
20260502234019 79 0.0 0.0 0.00 2.07 0.00 99 1011.0
20260502233819 79 0.0 0.0 0.00 2.07 0.00 99 1010.9
20260502233619 79 0.0 0.0 0.00 2.07 0.00 99 1010.9
20260502233419 79 0.0 0.0 0.00 2.07 0.00 99 1010.9
20260502233219 79 0.0 0.0 0.00 2.07 0.00 99 1010.9
20260502233019 79 0.0 0.0 0.00 2.07 0.00 99 1010.8
20260502232819 79 0.0 0.0 0.00 2.07 0.00 99 1010.9
20260502232619 79 0.0 0.0 0.00 2.07 0.00 99 1010.8
20260502232419 78 0.0 0.0 0.00 2.07 0.00 99 1010.8
20260502232219 78 0.0 0.0 0.00 2.07 0.00 99 1010.8
20260502232019 78 0.0 0.0 0.00 2.07 0.00 99 1010.9
20260502231820 78 0.0 0.0 0.00 2.07 0.00 99 1010.7
20260502231619 78 0.0 0.0 0.00 2.07 0.00 99 1010.7
20260502231419 78 0.0 0.0 0.00 2.07 0.00 99 1010.8
20260502231219 78 0.0 0.0 0.00 2.07 0.00 99 1010.6
20260502231019 78 0.0 0.0 0.00 2.07 0.00 99 1010.6
20260502230819 78 0.0 0.0 0.00 2.07 0.00 99 1010.6
20260502230619 78 0.0 0.0 0.00 2.07 0.00 99 1010.6
20260502230419 78 0.0 0.0 0.00 2.07 0.00 99 1010.5
20260502230219 78 0.0 0.0 0.00 2.07 0.00 99 1010.5
20260502230019 78 0.0 0.0 0.00 2.07 0.00 99 1010.5
20260502225819 78 0.0 0.0 0.00 2.07 0.00 99 1010.5
20260502225619 78 0.0 0.0 0.00 2.07 0.00 99 1010.5
20260502225420 78 0.0 0.0 0.00 2.07 0.00 99 1010.5
20260502225219 78 0.0 0.0 0.00 2.07 0.00 99 1010.4
20260502225019 78 0.0 0.0 0.00 2.07 0.00 99 1010.3
20260502224819 78 0.0 0.0 0.00 2.07 0.00 99 1010.4
20260502224619 78 0.0 0.0 0.00 2.07 0.00 99 1010.4
20260502224419 78 0.0 0.0 0.00 2.07 0.00 99 1010.3
20260502224219 78 0.0 0.0 0.00 2.07 0.00 99 1010.4
20260502224019 78 0.0 0.0 0.00 2.07 0.00 99 1010.3
20260502223819 78 0.0 0.0 0.00 2.07 0.00 99 1010.3
20260502223619 78 0.0 0.0 0.00 2.07 0.00 99 1010.3
20260502223419 78 0.0 0.0 0.00 2.07 0.00 99 1010.2
20260502223219 78 0.0 0.0 0.00 2.07 0.00 99 1010.2
20260502223020 78 0.0 0.0 0.00 2.07 0.00 99 1010.2
20260502222819 78 0.0 0.0 0.00 2.07 0.00 99 1010.2
20260502222619 78 0.0 0.0 0.00 2.07 0.00 99 1010.3
20260502222419 78 0.0 0.0 0.00 2.07 0.00 99 1010.3
20260502222219 78 0.0 0.0 0.00 2.07 0.00 99 1010.2
20260502222019 78 0.0 0.0 0.00 2.07 0.00 99 1010.2
20260502221819 78 0.0 0.0 0.00 2.07 0.00 99 1010.2
20260502221619 78 0.0 0.0 0.00 2.07 0.00 99 1010.2
20260502221419 78 0.0 0.0 0.00 2.07 0.00 99 1010.3
20260502221219 78 0.0 0.0 0.00 2.07 0.00 99 1010.3
20260502221019 78 0.0 0.0 0.00 2.07 0.00 99 1010.2
20260502220819 78 0.0 0.0 0.00 2.07 0.00 99 1010.2
20260502220620 78 0.0 0.0 0.00 2.07 0.00 99 1010.2
20260502220419 78 0.0 0.0 0.00 2.07 0.00 99 1010.2
20260502220219 78 0.0 0.0 0.00 2.07 0.00 99 1010.2
20260502220019 78 0.0 0.0 0.00 2.07 0.00 99 1010.2
20260502215819 78 0.0 0.0 0.00 2.07 0.00 99 1010.2
20260502215619 78 0.0 0.0 0.00 2.07 0.00 99 1010.1
20260502215419 78 0.0 0.0 0.00 2.07 0.00 99 1010.1
20260502215219 78 0.0 0.0 0.00 2.07 0.00 99 1010.1
20260502215019 78 0.0 0.0 0.00 2.07 0.00 99 1010.1
20260502214819 78 0.0 0.0 0.00 2.07 0.00 99 1010.2
20260502214619 78 0.0 0.0 0.00 2.07 0.00 99 1010.2
20260502214419 78 0.0 0.0 0.00 2.07 0.00 99 1010.2
20260502214219 78 0.0 0.0 0.00 2.07 0.00 99 1010.1
20260502214019 78 0.0 0.0 0.00 2.07 0.00 99 1010.2
20260502213819 78 0.0 0.0 0.00 2.07 0.00 99 1010.2
20260502213619 78 0.0 0.0 0.00 2.07 0.00 99 1010.2
20260502213419 78 0.0 0.0 0.00 2.07 0.00 99 1010.1
20260502213219 78 0.0 0.0 0.00 2.07 0.00 99 1010.2
20260502213019 78 0.0 0.0 0.00 2.07 0.00 99 1010.2
20260502212819 78 0.0 0.0 0.00 2.07 0.00 99 1010.2
20260502212619 78 0.0 0.0 0.00 2.07 0.00 99 1010.2
20260502212419 78 0.0 0.0 0.00 2.07 0.00 99 1010.2
20260502212219 78 0.0 0.0 0.00 2.07 0.00 99 1010.2
20260502212019 78 0.0 0.0 0.00 2.07 0.00 99 1010.2
20260502211819 78 0.0 0.0 0.00 2.07 0.00 99 1010.3
20260502211619 78 0.0 0.0 0.00 2.07 0.00 99 1010.4
20260502211419 78 0.0 0.0 0.00 2.07 0.00 99 1010.3
20260502211219 78 0.0 0.0 0.00 2.07 0.00 99 1010.3
20260502211019 78 0.0 0.0 0.00 2.07 0.00 99 1010.4
20260502210819 78 0.0 0.0 0.00 2.07 0.00 99 1010.5
20260502210619 78 0.0 0.0 0.00 2.07 0.00 99 1010.4
20260502210419 78 0.0 0.0 0.00 2.07 0.00 99 1010.5
20260502210219 79 0.0 0.0 0.00 2.07 0.00 99 1010.4
20260502210019 79 0.0 0.0 0.00 2.07 0.00 99 1010.4
20260502205819 79 0.0 0.0 0.00 2.07 0.00 99 1010.3
20260502205619 78 0.0 0.0 0.00 2.07 0.00 99 1010.4
20260502205420 78 0.0 0.0 0.00 2.07 0.00 99 1010.4
20260502205219 78 0.0 0.0 0.00 2.07 0.00 99 1010.5
20260502205019 78 0.0 0.0 0.00 2.07 0.00 99 1010.5
20260502204819 78 0.0 0.0 0.00 2.07 0.00 99 1010.6
20260502204619 79 0.0 0.0 0.00 2.07 0.00 99 1010.5
20260502204419 79 0.0 0.0 0.00 2.07 0.00 99 1010.5
20260502204219 79 0.0 0.0 0.00 2.07 0.00 99 1010.5
20260502204019 79 0.0 0.0 0.00 2.07 0.00 99 1010.5
20260502203819 79 0.0 0.0 0.00 2.07 0.00 99 1010.4
20260502203619 79 0.0 0.0 0.00 2.07 0.00 99 1010.5
20260502203419 79 0.0 0.0 0.00 2.07 0.00 99 1010.6
20260502203219 79 0.0 0.0 0.00 2.07 0.00 99 1010.6
20260502203019 79 0.0 0.0 0.00 2.07 0.00 99 1010.5
20260502202819 79 0.0 0.0 0.00 2.07 0.00 99 1010.5
20260502202619 79 0.0 0.0 0.00 2.07 0.00 99 1010.4
20260502202419 79 0.0 0.0 0.00 2.07 0.00 99 1010.5
20260502202219 79 0.0 0.0 0.00 2.07 0.00 99 1010.4
20260502202019 79 0.0 0.0 0.00 2.07 0.00 99 1010.4
20260502201819 79 0.0 0.0 0.00 2.07 0.00 99 1010.4
20260502201619 79 0.0 0.0 0.00 2.07 0.00 99 1010.3
20260502201419 79 0.0 0.0 0.00 2.07 0.00 99 1010.4
20260502201219 79 0.0 0.0 0.00 2.07 0.00 99 1010.5
20260502201019 79 0.0 0.0 0.00 2.07 0.00 99 1010.3
20260502200819 79 0.0 0.0 0.00 2.07 0.00 99 1010.4
20260502200619 79 0.0 0.0 0.00 2.07 0.00 99 1010.5
20260502200419 79 0.0 0.0 0.00 2.07 0.00 99 1010.5
20260502200219 79 0.0 0.0 0.00 2.07 0.00 99 1010.5
20260502200019 79 0.0 0.0 0.00 2.07 0.00 99 1010.6
20260502195819 79 0.0 0.0 0.00 2.07 0.00 99 1010.6
20260502195619 79 0.0 0.0 0.00 2.07 0.00 99 1010.6
20260502195419 79 0.0 0.0 0.00 2.07 0.00 99 1010.6
20260502195219 79 0.0 0.0 0.00 2.07 0.00 99 1010.6
20260502195019 79 0.0 0.0 0.00 2.07 0.00 99 1010.6
20260502194819 79 0.0 0.0 0.00 2.07 0.00 99 1010.6
20260502194619 79 0.0 0.0 0.00 2.07 0.00 99 1010.6
20260502194419 79 0.0 0.0 0.00 2.07 0.00 99 1010.6
20260502194219 79 0.0 0.0 0.00 2.07 0.00 99 1010.6
20260502194019 79 0.0 0.0 0.00 2.07 0.00 99 1010.7
20260502193819 79 0.0 0.0 0.00 2.07 0.00 99 1010.5
20260502193619 79 0.0 0.0 0.00 2.07 0.00 99 1010.6
20260502193419 79 0.0 0.0 0.00 2.07 0.00 99 1010.6
20260502193219 79 0.0 0.0 0.00 2.07 0.00 99 1010.7
20260502193019 79 0.0 0.0 0.00 2.07 0.00 99 1010.6
20260502192819 79 0.0 0.0 0.00 2.07 0.00 99 1010.6
20260502192619 79 0.0 0.0 0.00 2.07 0.00 99 1010.6
20260502192419 79 0.0 0.0 0.00 2.07 0.00 99 1010.6
20260502192219 79 0.0 0.0 0.00 2.07 0.00 99 1010.6
20260502192019 79 0.0 0.0 0.00 2.07 0.00 99 1010.6
20260502191819 79 0.0 0.0 0.00 2.07 0.00 99 1010.7
20260502191619 79 0.0 0.0 0.00 2.07 0.00 99 1010.6
20260502191419 79 0.0 0.0 0.00 2.07 0.00 99 1010.6
20260502191219 79 0.0 0.0 0.00 2.07 0.00 99 1010.6
20260502191019 79 0.0 0.0 0.00 2.07 0.00 99 1010.6
20260502190819 79 0.0 0.0 0.00 2.07 0.00 99 1010.6
20260502190620 79 0.0 0.0 0.00 2.07 0.00 99 1010.6
20260502190419 79 0.0 0.0 0.00 2.07 0.00 99 1010.6
20260502190218 79 0.0 0.0 0.00 2.07 0.00 99 1010.7
20260502190019 79 0.0 0.0 0.00 2.07 0.00 99 1010.6
20260502185818 79 0.0 0.0 0.00 2.07 0.00 99 1010.6
20260502185618 79 0.0 0.0 0.00 2.07 0.00 99 1010.6
20260502185418 79 0.0 0.0 0.00 2.07 0.00 99 1010.6
20260502185218 79 0.0 0.0 0.00 2.07 0.00 99 1010.5
20260502185018 79 0.0 0.0 0.00 2.07 0.00 99 1010.6
20260502184819 79 0.0 0.0 0.00 2.07 0.00 99 1010.6
20260502184618 79 0.0 0.0 0.00 2.07 0.00 99 1010.6
20260502184418 79 0.0 0.0 0.00 2.07 0.00 99 1010.7
20260502184218 79 0.0 0.0 0.00 2.07 0.00 99 1010.8
20260502184018 79 0.0 0.0 0.00 2.07 0.00 99 1010.8
20260502183818 79 0.0 0.0 0.00 2.07 0.00 99 1010.7
20260502183619 79 0.0 0.0 0.00 2.07 0.00 99 1010.8
20260502183418 79 0.0 0.0 0.00 2.07 0.00 99 1010.8
20260502183219 79 0.0 0.0 0.00 2.07 0.00 99 1010.9
20260502183018 80 0.0 0.0 0.00 2.07 0.00 99 1010.8
20260502182818 80 0.0 0.0 0.00 2.07 0.00 99 1010.9
20260502182618 80 0.0 0.0 0.00 2.07 0.00 99 1010.9
20260502182419 80 0.0 0.0 0.00 2.07 0.00 99 1010.8
20260502182218 80 0.0 0.0 0.00 2.07 0.00 99 1010.9
20260502182018 80 0.0 0.0 0.00 2.07 0.00 99 1010.9
20260502181818 80 0.0 0.0 0.00 2.07 0.00 99 1011.0
20260502181618 80 0.0 0.0 0.00 2.07 0.00 99 1011.1
20260502181418 80 0.0 0.0 0.00 2.07 0.00 99 1011.1
20260502181219 80 0.0 0.0 0.00 2.07 0.00 99 1011.1
20260502181018 80 0.0 0.0 0.00 2.07 0.00 99 1011.1
20260502180818 79 0.0 0.0 0.00 2.07 0.00 99 1011.2
20260502180618 79 0.0 0.0 0.00 2.07 0.00 99 1011.1
20260502180418 79 0.0 0.0 0.00 2.07 0.00 99 1011.3
20260502180218 79 0.0 0.0 0.00 2.07 0.00 99 1011.2
20260502170418 79 0.0 0.0 0.00 2.07 0.00 99 1011.8
20260502170218 79 0.0 0.0 0.00 2.07 0.00 99 1011.8
20260502164218 79 0.0 0.0 0.00 2.07 2.07 99 1011.8
20260502164018 79 0.0 0.0 0.00 2.07 2.07 99 1011.9
20260502163818 79 0.0 0.0 0.00 2.07 2.07 99 1011.8
20260502163619 79 0.0 0.0 0.00 2.07 2.07 99 1011.8
20260502163418 79 0.0 0.0 0.00 2.07 2.07 99 1011.8
20260502163219 79 0.0 0.0 0.00 2.07 2.07 99 1011.9
20260502163018 79 0.0 0.0 0.00 2.07 2.07 99 1011.9
20260502162819 79 0.0 0.0 0.00 2.07 2.07 99 1011.9
20260502162618 79 0.0 0.0 0.00 2.07 2.07 99 1011.9
20260502162418 79 0.0 0.0 0.00 2.07 2.07 99 1011.8
20260502162218 79 0.0 0.0 0.00 2.07 2.07 99 1011.8
20260502162018 79 0.0 0.0 0.00 2.07 2.07 99 1011.9
20260502161818 79 0.0 0.0 0.00 2.07 2.07 99 1011.9
20260502161618 79 0.0 0.0 0.00 2.07 2.07 99 1011.8
20260502161418 79 0.0 0.0 0.00 2.07 2.07 99 1011.8
20260502161219 79 0.0 0.0 0.00 2.07 2.07 99 1011.9
20260502161018 79 0.0 0.0 0.00 2.07 2.07 99 1011.9
20260502160818 79 0.0 0.0 0.00 2.07 2.07 99 1011.8
20260502160619 79 0.0 0.0 0.00 2.07 2.07 99 1011.8
20260502160418 79 0.0 0.0 0.00 2.07 2.07 99 1011.7
20260502160219 79 0.0 0.0 0.00 2.07 2.07 99 1011.7
20260502152218 79 0.0 0.0 0.00 2.07 2.07 99 1011.8
20260502152018 79 0.0 0.0 0.00 2.07 2.07 99 1011.8
20260502151818 79 0.0 0.0 0.00 2.07 2.07 99 1011.8
20260502151618 79 0.0 0.0 0.00 2.07 2.07 99 1011.8
20260502151418 79 0.0 0.0 0.00 2.07 2.07 99 1011.9
20260502151218 79 0.0 0.0 0.00 2.07 2.07 99 1011.9
20260502151018 79 0.0 0.0 0.00 2.07 2.07 99 1011.9
20260502150818 79 0.0 0.0 0.00 2.07 2.07 99 1011.9
20260502150618 79 0.0 0.0 0.00 2.07 2.07 99 1011.8
20260502150419 79 0.0 0.0 0.00 2.07 2.07 99 1011.8
20260502150218 79 0.0 0.0 0.00 2.07 2.07 99 1011.9
20260502130618 79 0.0 0.0 0.00 2.07 2.07 99 1011.5
20260502130418 79 0.0 0.0 0.00 2.07 2.07 99 1011.5
20260502130218 79 0.0 0.0 0.00 2.07 2.07 99 1011.4
20260502123619 79 0.0 0.0 0.00 2.07 2.07 99 1010.9
20260502123419 79 0.0 0.0 0.00 2.07 2.07 99 1010.9
20260502123219 79 0.0 0.0 0.00 2.07 2.07 99 1010.8
20260502123018 79 0.0 0.0 0.00 2.07 2.07 99 1010.8
20260502122818 79 0.0 0.0 0.00 2.07 2.07 99 1010.8
20260502122618 79 0.0 0.0 0.00 2.07 2.07 99 1010.7
20260502122419 79 0.0 0.0 0.00 2.07 2.07 99 1010.7
20260502122218 79 0.0 0.0 0.00 2.07 2.07 99 1010.6
20260502122018 79 0.0 0.0 0.00 2.07 2.07 99 1010.6
20260502121818 79 0.0 0.0 0.00 2.07 2.07 99 1010.6
20260502121618 79 0.0 0.0 0.00 2.07 2.07 99 1010.6
20260502121418 79 0.0 0.0 0.00 2.07 2.07 99 1010.6
20260502121219 79 0.0 0.0 0.00 2.07 2.07 99 1010.6
20260502121018 79 0.0 0.0 0.00 2.07 2.07 99 1010.6
20260502120818 79 0.0 0.0 0.00 2.07 2.07 99 1010.6
20260502120618 79 0.0 0.0 0.00 2.07 2.07 99 1010.6
20260502120419 79 0.0 0.0 0.00 2.07 2.07 99 1010.5
20260502120218 79 0.0 0.0 0.00 2.07 2.07 99 1010.6
20260502115818 79 0.0 0.0 0.00 2.07 2.07 99 1010.6
20260502115619 79 0.0 0.0 0.00 2.07 2.07 99 1010.6
20260502115419 79 0.0 0.0 0.00 2.07 2.07 99 1010.5
20260502115218 79 0.0 0.0 0.00 2.07 2.07 99 1010.5
20260502115018 79 0.0 0.0 0.00 2.07 2.07 99 1010.5
20260502114819 79 0.0 0.0 0.00 2.07 2.07 99 1010.5
20260502114618 79 0.0 0.0 0.00 2.07 2.07 99 1010.4
20260502114419 79 0.0 0.0 0.00 2.07 2.07 99 1010.3
20260502114218 79 0.0 0.0 0.00 2.07 2.07 99 1010.2
20260502114018 79 0.0 0.0 0.00 2.07 2.07 99 1010.3
20260502113818 79 0.0 0.0 0.00 2.07 2.07 99 1010.2
20260502113619 79 0.0 0.0 0.00 2.07 2.07 99 1010.1
20260502113420 79 0.0 0.0 0.00 2.07 2.07 99 1010.0
20260502113219 79 0.0 0.0 0.00 2.07 2.07 99 1010.0
20260502113020 79 0.0 0.0 0.00 2.07 2.07 99 1009.9
20260502112819 79 0.0 0.0 0.00 2.07 2.07 99 1009.8
20260502112620 79 0.0 0.0 0.00 2.07 2.07 99 1009.8
20260502112419 79 0.0 0.0 0.00 2.07 2.07 99 1009.7
20260502112219 79 0.0 0.0 0.00 2.07 2.07 99 1009.7
20260502112019 79 0.0 0.0 0.00 2.07 2.07 99 1009.7
20260502111820 79 0.0 0.0 0.00 2.07 2.07 99 1009.6
20260502111619 79 0.0 0.0 0.00 2.07 2.07 99 1009.6
20260502111419 79 0.0 0.0 0.00 2.07 2.07 99 1009.5
20260502111219 79 0.0 0.0 0.00 2.07 2.07 99 1009.5
20260502111024 79 0.0 0.0 0.00 2.07 2.07 99 1009.5
20260502110819 79 0.0 0.0 0.00 2.07 2.07 99 1009.4
20260502110620 79 0.0 0.0 0.00 2.07 2.07 99 1009.4
20260502110419 80 0.0 0.0 0.00 2.07 2.07 99 1009.4
20260502110219 80 0.0 0.0 0.00 2.07 2.07 99 1009.5
20260502110019 80 0.0 0.0 0.00 2.07 2.07 99 1009.4
20260502105819 80 0.0 0.0 0.00 2.07 2.07 99 1009.4
20260502105619 80 0.0 0.0 0.00 2.07 2.07 99 1009.4
20260502105420 80 0.0 0.0 0.00 2.07 2.07 99 1009.4
20260502105219 80 0.0 0.0 0.00 2.07 2.07 99 1009.4
20260502105019 80 0.0 0.0 0.00 2.07 2.07 99 1009.3
20260502104819 80 0.0 0.0 0.00 2.07 2.07 99 1009.4
20260502104619 80 0.0 0.0 0.00 2.07 2.07 99 1009.6
20260502104419 80 0.0 0.0 0.00 2.07 2.07 99 1009.7
20260502104218 80 0.0 0.0 0.00 2.07 2.07 99 1009.6
20260502104019 80 0.0 0.0 0.00 2.07 2.07 99 1009.7
20260502103818 80 0.0 0.0 0.00 2.07 2.07 99 1009.6
20260502103619 80 0.0 0.0 0.00 2.07 2.07 99 1009.6
20260502103419 80 0.0 0.0 0.00 2.07 2.07 99 1009.6
20260502103219 80 0.0 0.0 0.00 2.07 2.07 99 1009.6
20260502103019 80 0.0 0.0 0.00 2.07 2.07 99 1009.6
20260502102818 80 0.0 0.0 0.00 2.07 2.07 99 1009.6
20260502102618 80 0.0 0.0 0.00 2.07 2.07 99 1009.7
20260502102419 80 0.0 0.0 0.00 2.07 2.07 99 1009.6
20260502102219 80 0.0 0.0 0.00 2.07 2.07 99 1009.7
20260502102019 80 0.0 0.0 0.00 2.07 2.07 99 1009.6
20260502101819 80 0.0 0.0 0.00 2.07 2.07 99 1009.6
20260502101619 80 0.0 0.0 0.00 2.07 2.07 99 1009.7
20260502101418 80 0.0 0.0 0.00 2.07 2.07 99 1009.7
20260502101219 81 0.0 0.0 0.00 2.07 2.07 99 1009.7
20260502101019 81 0.0 0.0 0.00 2.07 2.07 99 1009.7
20260502100819 81 0.0 0.0 0.00 2.07 2.07 99 1009.6
20260502100618 81 0.0 0.0 0.01 2.07 2.07 99 1009.6
20260502100418 81 0.0 0.0 0.01 2.07 2.07 99 1009.6
20260502100218 80 0.0 0.0 0.01 2.07 2.07 99 1009.5
20260502091418 79 0.0 0.0 0.05 2.07 2.07 99 1009.0
20260502091218 79 0.0 0.0 0.05 2.07 2.07 99 1009.0
20260502091018 79 0.0 0.0 0.05 2.07 2.07 99 1009.1
20260502090818 79 0.0 0.0 0.06 2.07 2.07 99 1009.1
20260502090618 79 0.0 0.0 0.06 2.06 2.06 99 1009.1
20260502090419 79 0.0 0.0 0.07 2.06 2.06 99 1009.0
20260502090218 79 0.0 0.0 0.08 2.06 2.06 99 1009.0
20260502071419 79 113 5.2 7.8 1.17 1.17 1.17 92 1009.8
20260502071229 80 45 5.2 7.8 1.10 1.10 1.10 91 1009.9
20260502071019 80 45 4.3 7.0 0.99 0.99 0.99 91 1009.8
20260502070423 80 7 4.3 7.8 0.99 0.99 0.99 88 1009.6
20260502070216 81 10 4.3 7.8 0.87 0.87 0.87 87 1009.6
20260502070021 81 349 3.5 7.0 0.78 0.78 0.78 86 1009.7
20260502065825 81 135 4.3 9.6 0.65 0.65 0.65 84 1009.7
20260502065619 82 108 5.2 7.8 0.56 0.56 0.56 80 1009.7
20260502065423 83 135 5.2 7.8 0.43 0.43 0.43 78 1009.7
20260502065217 84 135 6.1 7.8 0.34 0.34 0.34 75 1009.8
20260502065021 85 135 7.0 9.6 0.25 0.25 0.25 73 1009.7
20260502064825 86 10 6.1 9.6 0.19 0.19 0.19 71 1009.7
20260502064619 87 36 4.3 8.7 0.11 0.11 0.11 69 1009.7
20260502064422 88 30 1.7 4.3 0.07 0.07 0.07 66 1009.6
20260502064216 89 11 1.7 6.1 0.04 0.04 0.04 65 1009.6
20260502064020 89 45 0.9 3.5 0.01 0.01 0.01 64 1009.7
20260502063824 90 336 3.5 6.1 0.00 0.00 0.00 63 1009.7
20260502063618 90 327 1.7 6.1 0.00 0.00 0.00 63 1009.7
20260502063423 90 45 1.7 5.2 0.00 0.00 0.00 63 1009.8
20260502063216 90 45 3.5 6.1 0.00 0.00 0.00 64 1009.8
20260502063021 90 270 0.9 3.5 0.00 0.00 0.00 64 1009.8
20260502062825 91 23 0.0 2.6 0.00 0.00 0.00 61 1009.9
20260502062619 90 0 1.7 5.2 0.00 0.00 0.00 62 1010.0
20260502062424 90 1.7 4.3 0.00 0.00 0.00 63 1010.0
20260502062218 91 41 0.9 4.3 0.00 0.00 0.00 60 1010.0
20260502062022 91 0 4.3 6.1 0.00 0.00 0.00 60 1010.1
20260502061816 91 45 1.7 6.1 0.00 0.00 0.00 59 1010.1
20260502061621 91 45 2.6 4.3 0.00 0.00 0.00 58 1010.1
20260502061425 91 2.6 6.1 0.00 0.00 0.00 57 1010.2
20260502061219 91 0.9 6.1 0.00 0.00 0.00 57 1010.3
20260502061023 92 0.0 1.7 0.00 0.00 0.00 56 1010.2
20260502060817 92 334 1.7 4.3 0.00 0.00 0.00 56 1010.2
20260502060620 92 45 2.6 5.2 0.00 0.00 0.00 56 1010.2
20260502060425 92 0 1.7 4.3 0.00 0.00 0.00 55 1010.2
20260502060219 92 45 4.3 7.0 0.00 0.00 0.00 55 1010.2
20260502060023 93 80 4.3 7.0 0.00 0.00 0.00 55 1010.3
20260502055818 93 135 5.2 8.7 0.00 0.00 0.00 55 1010.2
20260502055622 93 45 3.5 8.7 0.00 0.00 0.00 55 1010.3
20260502055416 94 107 2.6 5.2 0.00 0.00 0.00 54 1010.4
20260502055221 94 94 4.3 7.0 0.00 0.00 0.00 54 1010.4
20260502055025 94 45 4.3 7.0 0.00 0.00 0.00 54 1010.3
20260502054819 94 35 1.7 7.0 0.00 0.00 0.00 54 1010.4
20260502054624 94 54 6.1 11.3 0.00 0.00 0.00 54 1010.4
20260502054418 94 124 3.5 5.2 0.00 0.00 0.00 54 1010.4
20260502054222 94 9 5.2 7.8 0.00 0.00 0.00 52 1010.6
20260502054016 94 45 4.3 7.0 0.00 0.00 0.00 51 1010.6
20260502053820 94 315 0.9 7.0 0.00 0.00 0.00 50 1010.6
20260502053630 95 315 1.7 7.0 0.00 0.00 0.00 50 1010.6
20260502053420 95 45 3.5 7.0 0.00 0.00 0.00 50 1010.6
20260502053231 95 0.9 3.5 0.00 0.00 0.00 50 1010.6
20260502053021 95 135 0.9 4.3 0.00 0.00 0.00 49 1010.7
20260502052831 95 135 0.9 4.3 0.00 0.00 0.00 48 1010.7
20260502052621 95 0.0 0.0 0.00 0.00 0.00 48 1010.7
20260502052430 95 0.0 0.0 0.00 0.00 0.00 50 1010.7
20260502052221 94 0.0 0.0 0.00 0.00 0.00 50 1010.8
20260502052031 94 0.0 0.0 0.00 0.00 0.00 50 1010.8
20260502051817 93 0.0 0.0 0.00 0.00 0.00 50 1010.9
20260502051618 93 0.0 0.0 0.00 0.00 0.00 50 1010.8
20260502051417 93 0.0 0.0 0.00 0.00 0.00 50 1010.8
20260502051230 93 0.0 0.0 0.00 0.00 0.00 50 1010.9
20260502051018 93 0.0 0.0 0.00 0.00 0.00 51 1011.0
20260502050818 92 0.0 0.0 0.00 0.00 0.00 52 1010.9
20260502050617 92 0.0 0.0 0.00 0.00 0.00 52 1010.9
20260502050418 92 0.0 0.0 0.00 0.00 0.00 51 1011.1